FW0699 Weather Reports


time (UTC)temp
C
wind
direction
speed
KPH
gust
KPH
rain 1hr
cm
rain 24hr
cm
rain mn
cm
humidity
%
barometer
mb
20260510061006 8 125 0.0 0.0 0.00 0.00 0.00 92 1011.1
20260510060508 8 125 0.0 0.0 0.00 0.00 0.00 92 1011.0
20260510060018 8 125 0.0 0.0 0.00 0.00 0.00 92 1011.0
20260510055510 8 125 0.0 0.0 0.00 0.00 0.00 92 1011.0
20260510055007 8 125 0.0 0.0 0.00 0.00 0.00 92 1011.1
20260510054522 8 125 0.0 0.0 0.00 0.00 0.00 92 1011.1
20260510054005 8 125 0.0 0.0 0.00 0.00 0.00 92 1011.1
20260510053506 9 125 0.0 0.0 0.00 0.00 0.00 91 1011.2
20260510053004 9 125 0.0 0.0 0.00 0.00 0.00 91 1011.2
20260510052502 9 125 0.0 0.0 0.00 0.00 0.00 91 1011.2
20260510052004 9 125 0.0 0.0 0.00 0.00 0.00 91 1011.1
20260510051512 9 125 0.0 0.0 0.00 0.00 0.00 91 1011.1
20260510051005 9 125 0.0 0.0 0.00 0.00 0.00 91 1011.1
20260510050509 9 125 0.0 0.0 0.00 0.00 0.00 91 1011.2
20260510050011 10 125 0.0 0.0 0.00 0.00 0.00 91 1011.3
20260510045506 10 125 0.0 0.0 0.00 0.00 0.00 91 1011.3
20260510045011 10 125 0.0 0.0 0.00 0.00 0.00 91 1011.3
20260510044509 10 125 0.0 0.0 0.00 0.00 0.00 91 1011.3
20260510044006 10 125 0.0 0.0 0.00 0.00 0.00 91 1011.4
20260510043509 10 125 0.0 0.0 0.00 0.00 0.00 91 1011.4
20260510043010 10 125 0.0 0.0 0.00 0.00 0.00 90 1011.4
20260510042503 10 125 0.0 0.0 0.00 0.00 0.00 90 1011.4
20260510042005 10 125 0.0 0.0 0.00 0.00 0.00 90 1011.4
20260510041512 10 125 0.0 0.0 0.00 0.00 0.00 89 1011.4
20260510041008 10 125 0.0 0.0 0.00 0.00 0.00 90 1011.4
20260510040506 10 125 0.0 0.0 0.00 0.00 0.00 89 1011.5
20260510040020 10 125 0.0 0.0 0.00 0.00 0.00 89 1011.4
20260510035505 10 125 0.0 0.0 0.00 0.00 0.00 90 1011.5
20260510035003 10 125 0.0 0.0 0.00 0.00 0.00 89 1011.5
20260510034518 10 125 0.0 0.0 0.00 0.00 0.00 89 1011.5
20260510034009 10 125 0.0 0.0 0.00 0.00 0.00 89 1011.5
20260510033506 10 125 0.0 0.0 0.00 0.00 0.00 89 1011.5
20260510033011 10 125 0.0 0.0 0.00 0.00 0.00 89 1011.5
20260510032508 11 125 0.0 0.0 0.00 0.00 0.00 89 1011.5
20260510032008 11 125 0.0 0.0 0.00 0.00 0.00 89 1011.4
20260510031508 11 125 0.0 0.0 0.00 0.00 0.00 88 1011.4
20260510031008 11 125 0.0 0.0 0.00 0.00 0.00 89 1011.3
20260510030507 11 125 0.0 0.0 0.00 0.00 0.00 88 1011.4
20260510030033 11 125 0.0 0.0 0.00 0.00 0.00 89 1011.4
20260510025506 11 125 0.0 0.0 0.00 0.00 0.00 88 1011.2
20260510025009 11 125 0.0 0.0 0.00 0.00 0.00 88 1011.2
20260510024525 11 125 0.0 0.0 0.00 0.00 0.00 87 1011.3
20260510024009 11 125 0.0 0.0 0.00 0.00 0.00 87 1011.2
20260510023503 11 125 0.0 0.0 0.00 0.00 0.00 87 1011.2
20260510023013 11 125 0.0 0.0 0.00 0.00 0.00 87 1011.2
20260510022507 11 125 0.0 0.0 0.00 0.00 0.00 87 1011.2
20260510022004 11 125 0.0 0.0 0.00 0.00 0.00 87 1011.1
20260510021522 11 125 0.0 3.2 0.00 0.00 0.00 87 1011.0
20260510021011 12 125 0.0 3.2 0.00 0.00 0.00 86 1010.8
20260510020510 12 125 0.0 0.0 0.00 0.00 0.00 85 1011.0
20260510020014 12 125 0.0 0.0 0.00 0.00 0.00 85 1010.9
20260510015509 12 125 0.0 0.0 0.00 0.00 0.00 85 1010.9
20260510015009 12 125 0.0 0.0 0.00 0.00 0.00 84 1010.9
20260510014510 12 125 0.0 0.0 0.00 0.00 0.00 83 1010.9
20260510014006 12 125 0.0 0.0 0.00 0.00 0.00 83 1010.9
20260510013503 12 125 0.0 0.0 0.00 0.00 0.00 82 1010.8
20260510013015 12 125 0.0 0.0 0.00 0.00 0.00 82 1010.8
20260510012505 13 125 0.0 0.0 0.00 0.00 0.00 82 1010.7
20260510012009 13 125 0.0 0.0 0.00 0.00 0.00 80 1010.6
20260510011521 13 125 0.0 0.0 0.00 0.00 0.00 80 1010.5
20260510011012 13 125 0.0 0.0 0.00 0.00 0.00 80 1010.4
20260510010506 13 125 0.0 0.0 0.00 0.00 0.00 79 1010.2
20260510010023 13 125 0.0 0.0 0.00 0.00 0.00 79 1010.1
20260510005504 14 125 0.0 0.0 0.00 0.00 0.00 78 1010.1
20260510005005 14 125 0.0 0.0 0.00 0.00 0.00 77 1010.1
20260510004503 14 125 0.0 1.6 0.00 0.00 0.00 76 1010.0
20260510004003 15 125 0.0 1.6 0.00 0.00 0.00 76 1009.8
20260510003504 15 125 0.0 1.6 0.00 0.00 0.00 75 1009.9
20260510003023 15 146 0.0 3.2 0.00 0.00 0.00 74 1009.9
20260510002503 15 114 0.0 3.2 0.00 0.00 0.00 74 1009.8
20260510002002 15 149 0.0 3.2 0.00 0.00 0.00 73 1009.8
20260510001504 16 149 0.0 3.2 0.00 0.00 0.00 72 1009.8
20260510001004 16 149 0.0 3.2 0.00 0.00 0.00 72 1009.7
20260510000503 16 149 0.0 3.2 0.00 0.00 0.00 71 1009.8
20260510000006 16 105 0.0 0.0 0.00 0.00 0.00 71 1009.8
20260509235505 16 105 0.0 0.0 0.00 0.00 0.00 71 1009.9
20260509235003 16 105 0.0 0.0 0.00 0.00 0.00 69 1009.8
20260509234512 16 105 0.0 0.0 0.00 0.00 0.00 69 1009.8
20260509234005 17 105 0.0 3.2 0.00 0.00 0.00 69 1009.8
20260509233504 17 101 0.0 4.8 0.00 0.00 0.00 69 1009.7
20260509233003 17 80 1.6 4.8 0.00 0.00 0.00 69 1009.6
20260509232507 17 86 1.6 4.8 0.00 0.00 0.00 68 1009.7
20260509232003 17 110 0.0 4.8 0.00 0.00 0.00 69 1009.6
20260509231505 17 91 0.0 4.8 0.00 0.00 0.00 68 1009.7
20260509231005 17 115 0.0 4.8 0.00 0.00 0.00 67 1009.7
20260509230502 17 37 3.2 4.8 0.00 0.00 0.00 66 1009.7
20260509230011 17 113 0.0 4.8 0.00 0.00 0.00 66 1009.7
20260509225504 17 112 1.6 6.4 0.00 0.00 0.00 66 1009.7
20260509225005 18 65 3.2 6.4 0.00 0.00 0.00 65 1009.6
20260509224515 18 30 3.2 12.9 0.00 0.00 0.00 66 1009.6
20260509224003 18 60 4.8 12.9 0.00 0.00 0.00 64 1009.7
20260509223504 18 88 3.2 9.7 0.00 0.00 0.00 64 1009.8
20260509223004 18 38 3.2 9.7 0.00 0.00 0.00 64 1009.7
20260509222504 18 47 4.8 9.7 0.00 0.00 0.00 64 1009.6
20260509222004 18 55 1.6 9.7 0.00 0.00 0.00 66 1009.6
20260509221511 18 155 1.6 9.7 0.00 0.00 0.00 65 1009.6
20260509221003 18 46 1.6 6.4 0.00 0.00 0.00 65 1009.5
20260509220505 18 117 1.6 11.3 0.00 0.00 0.00 67 1009.6
20260509220004 18 17 3.2 11.3 0.00 0.00 0.00 64 1009.7
20260509215507 17 112 3.2 11.3 0.00 0.00 0.00 65 1009.7
20260509215007 17 32 6.4 9.7 0.00 0.00 0.00 65 1009.7
20260509214504 17 44 3.2 8.0 0.00 0.00 0.00 67 1009.8
20260509214004 17 57 3.2 6.4 0.00 0.00 0.00 68 1009.8
20260509213507 17 46 1.6 8.0 0.00 0.00 0.00 69 1009.8
20260509213005 17 57 1.6 8.0 0.00 0.00 0.00 68 1009.8
20260509212504 17 9 3.2 6.4 0.00 0.00 0.00 67 1009.9
20260509212008 17 37 1.6 6.4 0.00 0.00 0.00 67 1009.9
20260509211508 17 121 3.2 6.4 0.00 0.00 0.00 68 1009.9
20260509211003 16 111 1.6 11.3 0.00 0.00 0.00 69 1009.9
20260509210507 16 99 3.2 11.3 0.00 0.00 0.00 69 1010.0
20260509210016 16 22 4.8 9.7 0.00 0.00 0.00 69 1009.8
20260509205508 16 39 4.8 14.5 0.00 0.00 0.00 68 1009.8
20260509205005 16 57 3.2 14.5 0.00 0.00 0.00 69 1009.9
20260509204514 16 42 3.2 11.3 0.00 0.00 0.00 67 1009.9
20260509204008 16 71 4.8 11.3 0.00 0.00 0.00 66 1009.8
20260509203503 17 30 3.2 9.7 0.00 0.00 0.00 67 1009.9
20260509203004 16 55 6.4 9.7 0.00 0.00 0.00 65 1009.9
20260509202505 16 98 3.2 9.7 0.00 0.00 0.00 66 1009.9
20260509202008 16 76 4.8 9.7 0.00 0.00 0.00 66 1010.0
20260509201508 16 59 4.8 9.7 0.00 0.00 0.00 67 1010.0
20260509201005 16 82 6.4 9.7 0.00 0.00 0.00 67 1010.0
20260509200506 16 57 3.2 8.0 0.00 0.00 0.00 67 1009.9
20260509200020 17 53 4.8 8.0 0.00 0.00 0.00 65 1010.1
20260509195504 17 159 0.0 3.2 0.00 0.00 0.00 66 1010.1
20260509195005 17 85 0.0 3.2 0.00 0.00 0.00 66 1010.1
20260509194525 17 48 1.6 4.8 0.00 0.00 0.00 65 1010.1
20260509194002 17 88 1.6 4.8 0.00 0.00 0.00 66 1010.1
20260509193506 17 72 1.6 4.8 0.00 0.00 0.00 65 1010.1
20260509193008 17 110 3.2 4.8 0.00 0.00 0.00 64 1010.3
20260509192505 17 101 1.6 3.2 0.00 0.00 0.00 66 1010.3
20260509192009 17 65 0.0 9.7 0.00 0.00 0.00 64 1010.4
20260509191517 17 76 3.2 9.7 0.00 0.00 0.00 63 1010.3
20260509191011 17 100 3.2 6.4 0.00 0.00 0.00 63 1010.4
20260509190503 17 132 0.0 6.4 0.00 0.00 0.00 62 1010.6
20260509190011 17 107 1.6 8.0 0.00 0.00 0.00 63 1010.5
20260509185507 17 154 0.0 12.9 0.00 0.00 0.00 63 1010.6
20260509185016 17 61 3.2 12.9 0.00 0.00 0.00 64 1010.5
20260509184512 17 138 1.6 11.3 0.00 0.00 0.00 65 1010.6
20260509184002 17 151 3.2 11.3 0.00 0.00 0.00 64 1010.6
20260509183507 17 40 3.2 11.3 0.00 0.00 0.00 66 1010.7
20260509183014 17 105 3.2 11.3 0.00 0.00 0.00 67 1010.8
20260509182505 16 128 1.6 12.9 0.00 0.00 0.00 67 1011.0
20260509182013 16 78 1.6 12.9 0.00 0.00 0.00 67 1011.0
20260509181517 16 86 3.2 8.0 0.00 0.00 0.00 65 1011.1
20260509181008 16 86 3.2 6.4 0.00 0.00 0.00 67 1011.2
20260509180507 16 57 3.2 4.8 0.00 0.00 0.00 68 1011.2
20260509180023 16 17 0.0 3.2 0.00 0.00 0.00 67 1011.4
20260509175507 15 18 0.0 6.4 0.00 0.00 0.00 67 1011.6
20260509175004 15 23 1.6 6.4 0.00 0.00 0.00 67 1011.7
20260509174518 15 29 1.6 6.4 0.00 0.00 0.00 65 1011.8
20260509174004 15 319 1.6 6.4 0.00 0.00 0.00 64 1011.9
20260509173506 15 352 1.6 4.8 0.00 0.00 0.00 64 1011.7
20260509173014 16 331 3.2 4.8 0.00 0.00 0.00 63 1011.6
20260509172510 16 57 0.0 4.8 0.00 0.00 0.00 65 1011.7
20260509172007 15 15 1.6 6.4 0.00 0.00 0.00 65 1011.7
20260509171512 15 360 3.2 6.4 0.00 0.00 0.00 65 1011.5
20260509171006 15 41 3.2 6.4 0.00 0.00 0.00 66 1011.6
20260509170510 15 352 4.8 6.4 0.00 0.00 0.00 66 1011.8
20260509170026 15 48 1.6 8.0 0.00 0.00 0.00 67 1011.8
20260509165506 15 67 1.6 8.0 0.00 0.00 0.00 64 1011.9
20260509165012 15 42 4.8 8.0 0.00 0.00 0.00 65 1011.9
20260509164509 15 42 3.2 4.8 0.00 0.00 0.00 65 1011.9
20260509164310 15 327 1.6 6.4 0.00 0.00 0.00 63 1011.9
20260509164306 15 325 3.2 6.4 0.00 0.00 0.00 64 1011.8
20260509164303 15 74 4.8 6.4 0.00 0.00 0.00 63 1012.0
20260509164255 15 352 1.6 6.4 0.00 0.00 0.00 62 1012.1
20260509164252 16 360 3.2 8.0 0.00 0.00 0.00 64 1011.9
20260509164249 16 326 3.2 8.0 0.00 0.00 0.00 64 1012.0
20260509164243 15 336 1.6 0.0 0.00 0.00 0.00 61 1011.8
20260509164240 13 196 6.4 17.7 0.00 0.18 0.10 54 1009.7
20260509164235 13 123 0.0 1.6 0.00 0.18 0.10 57 1009.7
20260509164227 14 123 0.0 3.2 0.00 0.18 0.10 55 1009.6
20260509164225 14 123 1.6 3.2 0.00 0.18 0.10 56 1009.5
20260509164220 15 126 0.0 3.2 0.00 0.18 0.10 54 1009.4
20260509164215 15 126 1.6 3.2 0.00 0.18 0.10 52 1009.4
20260509164210 15 115 0.0 0.0 0.00 0.18 0.10 52 1009.2
20260509164207 16 115 0.0 0.0 0.00 0.18 0.10 49 1009.2
20260509164158 16 115 0.0 0.0 0.00 0.18 0.10 47 1009.2
20260509164153 16 115 0.0 0.0 0.00 0.18 0.10 46 1009.0
20260509164149 17 97 0.0 3.2 0.00 0.18 0.10 49 1008.9
20260509164142 17 75 0.0 3.2 0.00 0.18 0.10 47 1008.8
20260509164138 17 75 0.0 1.6 0.00 0.18 0.10 42 1008.8
20260509164134 17 75 0.0 1.6 0.00 0.18 0.10 39 1008.7
20260509164127 17 75 0.0 1.6 0.00 0.18 0.10 39 1008.8
20260509164123 18 75 1.6 3.2 0.00 0.18 0.10 36 1008.8
20260509164116 18 350 1.6 3.2 0.00 0.18 0.10 38 1008.7
20260509164113 18 312 1.6 3.2 0.00 0.18 0.10 35 1008.6
20260509164108 18 98 0.0 8.0 0.00 0.18 0.10 39 1008.6
20260509164106 18 223 3.2 8.0 0.00 0.18 0.10 40 1008.6
20260509164100 18 180 3.2 8.0 0.00 0.18 0.10 38 1008.6
20260509164056 18 171 3.2 6.4 0.00 0.18 0.10 39 1008.6
20260509164053 18 188 0.0 6.4 0.00 0.18 0.10 38 1008.5
20260509164050 18 182 3.2 6.4 0.00 0.18 0.10 38 1008.6
20260509164047 18 48 1.6 9.7 0.00 0.18 0.10 36 1008.6
20260509164042 18 299 4.8 9.7 0.00 0.18 0.10 42 1008.7
20260509164038 18 186 4.8 8.0 0.00 0.18 0.10 37 1008.8
20260509164029 17 54 1.6 4.8 0.00 0.18 0.10 44 1008.8
20260509164027 17 240 1.6 4.8 0.00 0.18 0.10 40 1008.9
20260509164023 16 207 3.2 8.0 0.00 0.18 0.10 39 1008.9
20260509164020 16 285 3.2 11.3 0.00 0.18 0.10 39 1008.9
20260509164016 17 318 4.8 11.3 0.00 0.18 0.10 37 1009.0
20260509164013 17 317 3.2 11.3 0.00 0.18 0.10 39 1009.0
20260509164009 17 217 4.8 12.9 0.00 0.18 0.10 40 1009.1
20260509164006 17 327 3.2 12.9 0.00 0.18 0.10 38 1009.0
20260509163958 17 323 1.6 9.7 0.00 0.18 0.10 40 1008.9
20260509163953 17 341 4.8 14.5 0.00 0.18 0.10 37 1008.8
20260509163949 17 352 4.8 11.3 0.00 0.18 0.10 41 1008.8
20260509163946 17 321 4.8 11.3 0.00 0.18 0.10 43 1008.9
20260509163942 17 222 6.4 12.9 0.00 0.18 0.10 38 1008.9
20260509163934 17 351 6.4 14.5 0.00 0.18 0.10 39 1009.0
20260509163931 17 22 0.0 14.5 0.00 0.18 0.10 42 1009.2
20260509163926 17 350 9.7 14.5 0.00 0.18 0.10 38 1009.4
20260509163923 17 296 8.0 14.5 0.00 0.18 0.10 39 1009.5
20260509163919 16 41 4.8 16.1 0.00 0.18 0.10 40 1009.4
20260509163913 17 12 6.4 14.5 0.00 0.18 0.10 47 1009.7
20260509163907 16 282 4.8 22.5 0.00 0.18 0.10 43 1009.7
20260509163905 16 360 4.8 22.5 0.00 0.18 0.10 41 1009.7
20260509163858 16 44 6.4 16.1 0.00 0.18 0.10 46 1009.7
20260509163854 16 306 1.6 9.7 0.00 0.18 0.10 43 1009.9
20260509163849 16 340 4.8 9.7 0.00 0.18 0.10 40 1010.0
20260509163844 16 285 6.4 14.5 0.00 0.18 0.10 43 1010.1
20260509163837 15 60 6.4 17.7 0.00 0.18 0.10 43 1010.1
20260509163830 15 47 11.3 17.7 0.00 0.18 0.10 43 1010.2
20260509163827 15 335 4.8 11.3 0.00 0.18 0.10 44 1010.2
20260509163821 15 291 4.8 17.7 0.00 0.18 0.10 45 1010.5
20260509163817 15 316 9.7 22.5 0.00 0.18 0.10 43 1010.6
20260509163810 15 10 6.4 22.5 0.00 0.18 0.10 45 1010.8
20260509163802 15 311 9.7 22.5 0.00 0.18 0.10 45 1011.0
20260509163759 15 313 8.0 12.9 0.00 0.18 0.10 47 1010.8
20260509163755 15 298 4.8 16.1 0.00 0.18 0.10 48 1011.0
20260509163753 14 76 8.0 16.1 0.00 0.18 0.10 47 1011.0
20260509163747 14 13 3.2 24.1 0.00 0.18 0.10 46 1011.0
20260509163744 14 272 3.2 17.7 0.00 0.18 0.10 43 1011.1
20260509163736 14 28 9.7 19.3 0.00 0.18 0.10 45 1011.2
20260509163733 14 294 11.3 19.3 0.00 0.18 0.10 45 1011.3
20260509163729 14 351 9.7 19.3 0.00 0.18 0.10 46 1011.5
20260509163726 14 63 9.7 17.7 0.00 0.18 0.10 45 1011.4
20260509163722 13 69 8.0 19.3 0.00 0.18 0.10 44 1011.6
20260509163718 13 19 6.4 20.9 0.00 0.18 0.10 46 1011.6
20260509163714 13 360 11.3 20.9 0.00 0.18 0.10 44 1011.8
20260509163710 13 41 8.0 20.9 0.00 0.18 0.10 45 1011.8
20260509163707 13 64 11.3 20.9 0.00 0.18 0.10 44 1011.9
20260509163701 13 360 3.2 22.5 0.00 0.18 0.10 51 1011.9
20260509163656 13 41 8.0 22.5 0.00 0.18 0.10 46 1012.0
20260509163653 13 325 9.7 19.3 0.00 0.18 0.10 45 1011.9
20260509163648 13 320 8.0 19.3 0.00 0.18 0.10 48 1012.0
20260509163644 13 344 11.3 20.9 0.00 0.18 0.10 44 1012.0
20260509163641 13 18 9.7 20.9 0.00 0.18 0.10 44 1012.0
20260509163637 13 51 6.4 17.7 0.00 0.18 0.10 50 1012.0
20260509163632 13 9 9.7 22.5 0.00 0.18 0.10 48 1012.2
20260509163627 12 352 4.8 22.5 0.00 0.18 0.10 45 1012.3
20260509163624 12 304 9.7 22.5 0.00 0.20 0.10 45 1012.4
20260509163621 12 322 11.3 24.1 0.00 0.20 0.10 45 1012.5
20260509163617 12 333 14.5 24.1 0.00 0.20 0.10 44 1012.5
20260509163615 12 304 14.5 20.9 0.00 0.20 0.10 47 1012.5
20260509163609 12 28 9.7 20.9 0.00 0.23 0.10 46 1012.6
20260509163604 12 360 6.4 20.9 0.00 0.25 0.10 47 1012.6
20260509163558 12 329 11.3 20.9 0.00 0.28 0.10 50 1012.6
20260509163555 11 311 9.7 17.7 0.00 0.28 0.10 49 1012.5
20260509163550 11 32 6.4 16.1 0.00 0.30 0.10 49 1012.8
20260509163545 11 333 8.0 16.1 0.00 0.30 0.10 48 1012.9
20260509163543 11 332 9.7 16.1 0.00 0.30 0.10 48 1013.1
20260509163538 11 352 6.4 14.5 0.00 0.30 0.10 50 1013.1
20260509163534 11 28 6.4 17.7 0.00 0.33 0.10 50 1013.3
20260509163526 11 329 9.7 17.7 0.00 0.33 0.10 49 1013.2
20260509163523 11 320 6.4 12.9 0.00 0.33 0.10 50 1013.4
20260509163519 11 5 6.4 16.1 0.00 0.36 0.10 53 1013.4
20260509163516 10 319 8.0 16.1 0.00 0.38 0.10 52 1013.5
20260509163514 10 348 8.0 17.7 0.00 0.38 0.10 54 1013.2
20260509163510 10 16 8.0 12.9 0.00 0.41 0.10 54 1013.4
20260509163458 10 360 8.0 17.7 0.00 0.43 0.10 53 1013.4
20260509163455 10 327 8.0 19.3 0.00 0.46 0.10 54 1013.4
20260509163452 10 333 11.3 16.1 0.00 0.48 0.10 54 1013.4
20260509163449 10 339 6.4 16.1 0.00 0.48 0.10 56 1013.3
20260509163442 10 5 4.8 14.5 0.00 0.51 0.10 57 1013.3
20260509163438 10 360 6.4 17.7 0.00 0.51 0.10 58 1013.1
20260509163435 10 352 9.7 17.7 0.00 0.53 0.10 56 1013.1
20260509163431 10 350 9.7 16.1 0.00 0.53 0.10 58 1013.1
20260509163427 10 341 8.0 16.1 0.00 0.56 0.10 62 1013.1
20260509163422 10 360 8.0 16.1 0.00 0.56 0.10 62 1013.0
20260509163419 10 351 9.7 16.1 0.00 0.56 0.10 63 1013.0
20260509163416 9 308 8.0 20.9 0.00 0.56 0.10 68 1012.9
20260509163413 9 315 9.7 17.7 0.00 0.56 0.10 69 1013.0
20260509163405 9 338 6.4 14.5 0.00 0.56 0.10 72 1012.9
20260509163358 9 352 4.8 14.5 0.00 0.56 0.10 72 1013.0
20260509163354 9 331 4.8 12.9 0.00 0.56 0.10 74 1013.0
20260509163350 9 322 3.2 12.9 0.00 0.56 0.10 74 1013.1
20260509163341 9 344 3.2 8.0 0.00 0.56 0.10 74 1013.1
20260509163339 8 324 3.2 8.0 0.00 0.56 0.10 74 1012.9
20260509163331 8 331 3.2 8.0 0.00 0.56 0.10 75 1012.8
20260509163325 8 314 1.6 6.4 0.00 0.56 0.10 75 1012.5
20260509163320 8 345 3.2 4.8 0.00 0.56 0.10 77 1012.6
20260509163317 8 352 0.0 3.2 0.00 0.56 0.10 80 1012.5
20260509163311 8 327 0.0 3.2 0.00 0.56 0.10 75 1012.7
20260509163301 8 348 3.2 6.4 0.00 0.56 0.10 73 1012.1
20260509163256 8 360 3.2 4.8 0.00 0.56 0.10 74 1012.1
20260509163253 9 339 1.6 4.8 0.00 0.56 0.10 74 1012.0
20260509163247 9 350 0.0 6.4 0.00 0.56 0.10 73 1011.9
20260509163243 9 360 3.2 9.7 0.00 0.56 0.10 73 1012.0
20260509163239 9 336 4.8 9.7 0.00 0.56 0.10 72 1011.9
20260509163237 9 65 3.2 8.0 0.00 0.56 0.10 74 1011.9
20260509163229 9 352 1.6 6.4 0.00 0.56 0.10 76 1011.8
20260509163226 9 23 1.6 8.0 0.00 0.56 0.10 75 1011.8
20260509163223 9 22 1.6 8.0 0.00 0.56 0.10 75 1011.8
20260509163216 9 11 3.2 14.5 0.00 0.56 0.10 76 1011.9
20260509163211 9 5 4.8 12.9 0.00 0.56 0.10 77 1011.9
20260509163207 9 349 4.8 12.9 0.00 0.56 0.10 82 1011.6
20260509163159 10 12 6.4 12.9 0.00 0.56 0.10 89 1011.7
20260509163155 10 325 1.6 12.9 0.00 0.56 0.10 91 1011.7
20260509163152 10 18 0.0 8.0 0.00 0.56 0.10 91 1011.6
20260509163148 10 329 3.2 8.0 0.00 0.56 0.10 91 1011.5
20260509163144 10 20 3.2 8.0 0.00 0.56 0.10 92 1011.3
20260509163138 10 352 1.6 3.2 0.00 0.56 0.10 91 1011.3
20260509163133 10 38 0.0 3.2 0.00 0.56 0.10 92 1011.2
20260509163127 10 15 0.0 3.2 0.00 0.56 0.10 91 1011.2
20260509163123 10 15 0.0 3.2 0.00 0.56 0.10 91 1011.3
20260509163118 10 15 0.0 3.2 0.00 0.56 0.10 91 1011.3
20260509163114 10 15 0.0 3.2 0.03 0.56 0.10 91 1011.4
20260509163112 10 15 0.0 3.2 0.05 0.56 0.10 91 1011.2
20260509163107 10 39 0.0 4.8 0.10 0.56 0.10 91 1011.1
20260509163100 10 335 0.0 6.4 0.10 0.56 0.10 91 1011.3
20260509163057 10 11 3.2 6.4 0.10 0.56 0.10 91 1011.3
20260509163054 10 339 1.6 4.8 0.10 0.56 0.10 90 1011.5
20260509163051 10 10 1.6 4.8 0.10 0.56 0.10 90 1011.7
20260509163047 10 24 1.6 8.0 0.05 0.51 0.05 88 1011.8
20260509163040 10 360 3.2 8.0 0.00 0.46 0.00 87 1011.8
20260509163034 10 22 4.8 9.7 0.00 0.46 0.00 87 1011.8
20260509163026 11 13 4.8 16.1 0.00 0.46 0.00 86 1011.8
20260509163022 11 14 6.4 16.1 0.00 0.46 0.00 85 1011.7
20260509163004 11 319 8.0 16.1 0.00 0.46 0.00 85 1011.5
20260509162959 11 348 8.0 14.5 0.00 0.46 0.00 86 1011.6
20260509162957 11 360 4.8 8.0 0.00 0.46 0.00 87 1011.5
20260509162954 11 5 1.6 14.5 0.00 0.46 0.00 87 1011.6
20260509162947 11 360 6.4 14.5 0.00 0.46 0.00 88 1011.4
20260509162945 11 345 3.2 4.8 0.00 0.46 0.00 88 1011.6
20260509162941 11 9 1.6 3.2 0.00 0.46 0.00 87 1011.4
20260509162937 11 352 0.0 3.2 0.00 0.46 0.00 87 1011.6
20260509162932 11 352 0.0 3.2 0.00 0.46 0.00 86 1011.5
20260509162925 11 341 1.6 8.0 0.00 0.46 0.00 86 1011.8
20260509162919 11 360 4.8 17.7 0.00 0.46 0.00 85 1011.4
20260509162916 11 331 6.4 19.3 0.00 0.46 0.00 86 1011.5
20260509162911 12 5 3.2 8.0 0.00 0.46 0.00 89 1011.5
20260509162905 12 336 4.8 6.4 0.00 0.46 0.00 89 1011.6
20260509162858 12 331 3.2 14.5 0.03 0.46 0.00 88 1011.4
20260509162855 12 17 4.8 12.9 0.03 0.46 0.00 88 1011.3
20260509162848 12 12 6.4 12.9 0.05 0.46 0.00 87 1011.4
20260509162841 12 352 8.0 9.7 0.08 0.46 0.00 88 1011.2
20260509162838 12 318 3.2 8.0 0.08 0.46 0.46 89 1011.4
20260509162832 12 29 3.2 9.7 0.08 0.46 0.46 89 1010.8
20260509162825 12 338 3.2 11.3 0.08 0.46 0.46 88 1011.0
20260509162821 12 292 6.4 12.9 0.08 0.46 0.46 87 1010.5
20260509162815 13 324 4.8 12.9 0.05 0.43 0.43 86 1011.3
20260509162810 13 323 6.4 12.9 0.00 0.38 0.38 84 1011.1
20260509162804 13 352 4.8 12.9 0.00 0.38 0.38 84 1010.9
20260509162757 13 331 4.8 16.1 0.00 0.38 0.38 83 1010.8
20260509162750 14 322 9.7 19.3 0.00 0.38 0.38 82 1010.7
20260509162747 14 9 14.5 19.3 0.00 0.38 0.38 82 1011.0
20260509162743 14 309 9.7 16.1 0.00 0.38 0.38 83 1010.8
20260509162741 15 328 8.0 14.5 0.00 0.38 0.38 85 1010.7
20260509162737 15 348 6.4 14.5 0.00 0.38 0.38 85 1010.6
20260509162734 15 15 8.0 14.5 0.00 0.38 0.38 85 1010.5
20260509162731 15 9 4.8 14.5 0.00 0.38 0.38 86 1010.4
20260509162726 15 22 4.8 14.5 0.00 0.38 0.38 86 1010.4
20260509162723 15 29 4.8 12.9 0.00 0.38 0.38 87 1010.4
20260509162719 15 360 4.8 12.9 0.00 0.38 0.38 86 1010.6
20260509162716 15 281 4.8 9.7 0.00 0.38 0.38 86 1010.6
20260509162713 15 324 3.2 11.3 0.00 0.38 0.38 86 1010.6
20260509162709 15 342 4.8 16.1 0.00 0.38 0.38 85 1010.3
20260509162703 16 325 6.4 14.5 0.00 0.38 0.38 84 1010.8
20260509162656 16 350 4.8 16.1 0.00 0.38 0.38 83 1010.6
20260509162652 16 311 6.4 14.5 0.00 0.38 0.38 82 1010.6
20260509162645 16 321 6.4 19.3 0.00 0.38 0.38 82 1010.6
20260509162637 16 328 4.8 19.3 0.00 0.38 0.38 83 1010.6
20260509162633 16 315 11.3 19.3 0.00 0.38 0.38 83 1010.5
20260509162629 17 296 9.7 19.3 0.00 0.38 0.38 82 1010.4
20260509162625 17 320 9.7 16.1 0.00 0.38 0.38 83 1010.6
20260509162622 17 311 8.0 25.7 0.00 0.38 0.38 84 1010.3
20260509162618 17 317 12.9 25.7 0.00 0.38 0.38 86 1010.1
20260509162616 17 294 1.6 8.0 0.00 0.38 0.38 88 1010.2
20260509162611 17 269 0.0 9.7 0.00 0.38 0.38 88 1010.0
20260509162607 17 221 0.0 3.2 0.00 0.38 0.38 87 1009.8
20260509162559 18 195 1.6 3.2 0.00 0.38 0.38 87 1009.7
20260509162556 18 246 1.6 3.2 0.00 0.38 0.38 86 1009.8
20260509162552 18 246 1.6 6.4 0.00 0.38 0.38 85 1009.6
20260509162548 18 267 1.6 4.8 0.00 0.38 0.38 85 1009.2
20260509162545 18 314 0.0 4.8 0.00 0.38 0.38 84 1009.1
20260509162542 18 265 1.6 4.8 0.00 0.38 0.38 84 1009.1
20260509162535 18 279 0.0 3.2 0.00 0.38 0.38 83 1009.0
20260509162529 18 279 0.0 3.2 0.00 0.38 0.38 83 1009.1
20260509162525 18 291 0.0 3.2 0.00 0.38 0.38 83 1008.9
20260509162521 18 273 0.0 1.6 0.00 0.38 0.38 82 1008.9
20260509162518 18 273 0.0 3.2 0.00 0.38 0.38 82 1009.0
20260509162512 18 286 0.0 4.8 0.00 0.38 0.38 82 1009.0
20260509162506 18 273 0.0 9.7 0.00 0.38 0.38 82 1009.0
20260509162501 18 219 1.6 9.7 0.00 0.38 0.38 82 1008.9
20260509162455 18 246 1.6 8.0 0.00 0.38 0.38 82 1008.9
20260509162452 18 308 1.6 8.0 0.00 0.38 0.38 83 1009.0
20260509162448 18 273 3.2 8.0 0.00 0.38 0.38 83 1009.0
20260509162442 18 248 1.6 6.4 0.00 0.38 0.38 83 1009.0
20260509162434 18 222 0.0 4.8 0.00 0.38 0.38 83 1009.0
20260509162430 18 214 3.2 6.4 0.00 0.38 0.38 83 1009.0
20260509162427 18 290 0.0 3.2 0.00 0.38 0.38 84 1009.0
20260509162423 18 234 0.0 3.2 0.00 0.38 0.38 83 1009.0
20260509162417 18 250 0.0 6.4 0.00 0.38 0.38 83 1008.7
20260509162413 18 232 1.6 6.4 0.00 0.38 0.38 82 1008.6
20260509162410 18 229 4.8 11.3 0.00 0.38 0.38 82 1008.4
20260509162403 18 220 4.8 9.7 0.00 0.38 0.38 82 1008.2
20260509162358 18 244 4.8 9.7 0.00 0.38 0.38 81 1008.4
20260509162353 18 278 3.2 8.0 0.00 0.38 0.38 81 1008.3
20260509162347 18 198 6.4 11.3 0.00 0.38 0.38 82 1008.4
20260509162344 18 220 4.8 8.0 0.00 0.38 0.38 81 1008.2
20260509162341 18 313 3.2 8.0 0.00 0.38 0.38 81 1008.3
20260509162337 18 256 3.2 9.7 0.00 0.38 0.38 81 1008.5
20260509162331 18 206 3.2 14.5 0.00 0.38 0.38 82 1008.3
20260509162326 18 209 4.8 14.5 0.00 0.38 0.38 81 1008.3
20260509162323 18 226 6.4 14.5 0.00 0.38 0.38 82 1008.3
20260509162319 18 277 3.2 14.5 0.00 0.38 0.38 82 1008.4
20260509162316 18 222 3.2 11.3 0.00 0.38 0.38 82 1008.5
20260509162314 18 269 3.2 16.1 0.00 0.38 0.38 81 1008.4
20260509162310 18 200 6.4 14.5 0.00 0.38 0.38 81 1008.4
20260509162259 18 263 3.2 11.3 0.00 0.38 0.38 82 1008.4
20260509162256 18 290 3.2 14.5 0.00 0.38 0.38 81 1008.3
20260509162252 18 292 6.4 17.7 0.00 0.38 0.38 81 1008.4
20260509162249 18 230 9.7 17.7 0.00 0.38 0.38 80 1008.5
20260509162242 18 211 4.8 16.1 0.00 0.38 0.38 82 1008.6
20260509162240 18 212 8.0 16.1 0.00 0.38 0.38 81 1008.7
20260509162232 18 185 4.8 25.7 0.00 0.38 0.38 82 1008.6
20260509162229 18 275 8.0 22.5 0.00 0.38 0.38 82 1008.6
20260509162226 18 207 9.7 22.5 0.00 0.38 0.38 83 1008.7
20260509162222 18 242 11.3 22.5 0.00 0.38 0.38 83 1008.7
20260509162218 18 215 9.7 22.5 0.00 0.38 0.38 83 1008.8
20260509162215 18 232 9.7 22.5 0.00 0.38 0.38 84 1008.8
20260509162210 18 199 12.9 22.5 0.00 0.38 0.38 84 1008.8
20260509162206 17 240 9.7 24.1 0.00 0.38 0.38 87 1008.8
20260509162200 17 235 9.7 24.1 0.00 0.38 0.38 87 1008.9
20260509162158 16 211 9.7 20.9 0.00 0.38 0.38 87 1008.9
20260509162155 16 242 11.3 22.5 0.00 0.38 0.38 88 1009.1
20260509162150 16 229 12.9 22.5 0.00 0.38 0.38 88 1009.0
20260509162144 16 249 8.0 19.3 0.00 0.38 0.38 89 1009.1
20260509162141 16 204 9.7 17.7 0.00 0.38 0.38 89 1009.2
20260509162139 16 227 9.7 22.5 0.00 0.38 0.38 89 1009.1
20260509162135 16 229 12.9 22.5 0.00 0.38 0.38 89 1009.0
20260509162130 16 191 11.3 25.7 0.00 0.38 0.38 89 1009.1
20260509162126 16 233 9.7 25.7 0.00 0.38 0.38 90 1009.1
20260509162122 16 237 14.5 25.7 0.00 0.38 0.38 90 1009.1
20260509162118 15 238 8.0 17.7 0.00 0.38 0.38 91 1009.1
20260509162115 15 217 8.0 17.7 0.00 0.38 0.38 91 1009.1
20260509162112 15 220 6.4 12.9 0.00 0.38 0.38 91 1009.1
20260509162106 15 204 8.0 27.4 0.00 0.38 0.38 91 1009.2
20260509162059 15 217 12.9 20.9 0.00 0.38 0.38 91 1009.2
20260509162055 15 207 8.0 20.9 0.00 0.38 0.38 91 1009.1
20260509162052 15 226 6.4 20.9 0.00 0.38 0.38 91 1009.1
20260509162045 15 212 11.3 22.5 0.03 0.38 0.38 91 1009.3
20260509162041 15 207 9.7 24.1 0.03 0.38 0.38 92 1009.3
20260509162036 15 186 11.3 29.0 0.05 0.38 0.38 92 1009.3
20260509162029 15 207 12.9 29.0 0.05 0.38 0.38 92 1009.3
20260509162026 15 192 14.5 29.0 0.08 0.38 0.38 92 1009.3
20260509162021 15 197 12.9 25.7 0.13 0.38 0.38 93 1009.2
20260509162016 15 202 12.9 24.1 0.13 0.38 0.38 93 1009.2
20260509162011 15 212 14.5 24.1 0.10 0.36 0.36 93 1009.3
20260509162007 15 191 6.4 19.3 0.10 0.36 0.36 93 1009.2
20260509161959 15 263 11.3 19.3 0.10 0.36 0.36 93 1009.7
20260509161956 15 201 9.7 17.7 0.10 0.33 0.33 92 1009.7
20260509161954 15 220 8.0 20.9 0.10 0.33 0.33 92 1010.0
20260509161949 15 212 9.7 22.5 0.08 0.30 0.30 92 1010.1
20260509161947 15 198 11.3 22.5 0.08 0.28 0.28 92 1010.0
20260509161943 15 200 12.9 22.5 0.10 0.28 0.28 92 1009.9
20260509161940 15 220 9.7 22.5 0.08 0.25 0.25 92 1009.9
20260509161938 15 199 9.7 22.5 0.10 0.25 0.25 92 1009.8
20260509161934 15 183 9.7 20.9 0.10 0.25 0.25 92 1009.7
20260509161926 15 186 6.4 20.9 0.10 0.25 0.25 92 1009.6
20260509161922 15 227 8.0 17.7 0.15 0.25 0.25 92 1009.7
20260509161919 15 139 8.0 17.7 0.18 0.25 0.25 91 1009.5
20260509161916 15 175 8.0 17.7 0.15 0.23 0.23 91 1009.6
20260509161914 15 207 6.4 17.7 0.18 0.23 0.23 91 1009.5
20260509161910 15 209 6.4 16.1 0.15 0.20 0.20 91 1010.0
20260509161858 15 209 6.4 14.5 0.15 0.18 0.18 90 1010.1
20260509161855 15 204 6.4 16.1 0.15 0.15 0.15 90 1010.1
20260509161853 15 193 9.7 16.1 0.15 0.15 0.15 89 1010.1
20260509161849 15 184 8.0 17.7 0.15 0.15 0.15 89 1010.1
20260509161845 15 192 6.4 19.3 0.13 0.13 0.13 88 1010.2
20260509161841 15 213 11.3 19.3 0.10 0.10 0.10 87 1010.2
20260509161839 15 202 8.0 19.3 0.08 0.08 0.08 87 1010.1
20260509161831 15 198 4.8 17.7 0.05 0.05 0.05 85 1010.0
20260509161825 16 211 8.0 14.5 0.05 0.05 0.05 84 1010.0
20260509161823 16 247 4.8 12.9 0.03 0.03 0.03 84 1010.1
20260509161819 16 238 6.4 22.5 0.03 0.03 0.03 83 1010.1
20260509161817 16 201 8.0 22.5 0.00 0.00 0.00 82 1010.1
20260509161809 16 188 8.0 22.5 0.00 0.00 0.00 81 1010.2
20260509161806 16 169 6.4 19.3 0.00 0.00 0.00 78 1010.3
20260509161759 16 222 6.4 24.1 0.00 0.00 0.00 78 1010.4
20260509161755 17 242 6.4 20.9 0.00 0.00 0.00 76 1010.6
20260509161753 17 200 9.7 20.9 0.00 0.00 0.00 76 1010.5
20260509161749 17 219 9.7 22.5 0.00 0.00 0.00 76 1010.6
20260509161741 17 202 9.7 20.9 0.00 0.00 0.00 76 1010.1
20260509161738 17 223 11.3 20.9 0.00 0.00 0.00 75 1010.2
20260509161734 17 205 6.4 20.9 0.00 0.00 0.00 75 1010.0
20260509161729 17 246 6.4 24.1 0.00 0.00 0.00 75 1009.9
20260509161726 17 215 9.7 20.9 0.00 0.00 0.00 75 1009.9
20260509161721 17 219 6.4 16.1 0.00 0.00 0.00 74 1009.9
20260509161719 17 194 8.0 24.1 0.00 0.00 0.00 74 1009.8
20260509161714 17 182 8.0 24.1 0.00 0.00 0.00 73 1009.6
20260509161709 17 200 8.0 19.3 0.00 0.00 0.00 73 1009.7
20260509161705 17 192 12.9 20.9 0.00 0.00 0.00 72 1009.5
20260509161702 17 212 9.7 20.9 0.00 0.00 0.00 72 1009.3
20260509161657 17 218 12.9 20.9 0.00 0.00 0.00 72 1009.4
20260509161655 17 211 11.3 17.7 0.00 0.00 0.00 72 1009.4
20260509161651 17 268 9.7 17.7 0.00 0.00 0.00 71 1009.3
20260509161644 17 202 4.8 20.9 0.00 0.00 0.00 71 1009.3
20260509161635 17 194 4.8 19.3 0.00 0.00 0.00 70 1009.4
20260509161632 17 188 11.3 19.3 0.00 0.00 0.00 70 1009.4
20260509161625 17 213 12.9 19.3 0.00 0.00 0.00 69 1009.3
20260509161621 17 234 11.3 19.3 0.00 0.00 0.00 69 1009.3
20260509161618 17 196 11.3 17.7 0.00 0.00 0.00 68 1009.4
20260509161614 17 223 9.7 17.7 0.00 0.00 0.00 68 1009.3
20260509161609 17 209 6.4 16.1 0.00 0.00 0.00 67 1009.3
20260509161605 18 188 8.0 20.9 0.00 0.00 0.00 66 1009.4
20260509161601 18 200 11.3 20.9 0.00 0.00 0.00 66 1009.3
20260509161558 18 193 8.0 19.3 0.00 0.00 0.00 66 1009.3
20260509161556 18 194 8.0 20.9 0.00 0.00 0.00 65 1009.6
20260509161553 18 209 11.3 24.1 0.00 0.00 0.00 64 1009.7
20260509161537 18 144 11.3 20.9 0.00 0.00 0.00 63 1009.5
20260509161535 18 205 9.7 25.7 0.00 0.00 0.00 63 1009.4
20260509161530 18 175 11.3 25.7 0.00 0.00 0.00 62 1009.5
20260509161520 18 213 9.7 20.9 0.00 0.00 0.00 62 1009.6
20260509161504 18 212 12.9 20.9 0.00 0.00 0.00 62 1009.4
20260509161458 18 233 8.0 19.3 0.00 0.00 0.00 62 1009.5
20260509161455 18 223 8.0 19.3 0.00 0.00 0.00 62 1009.7
20260509161452 18 154 9.7 19.3 0.00 0.00 0.00 61 1009.8
20260509161446 19 215 11.3 17.7 0.00 0.00 0.00 61 1009.7
20260509161443 19 212 11.3 19.3 0.00 0.00 0.00 60 1009.9
20260509161439 19 201 9.7 17.7 0.00 0.00 0.00 60 1009.9
20260509161432 19 196 8.0 24.1 0.00 0.00 0.00 59 1009.9
20260509161428 19 204 11.3 16.1 0.00 0.00 0.00 59 1010.1
20260509161423 19 235 11.3 16.1 0.00 0.00 0.00 59 1010.2
20260509161420 20 232 9.7 16.1 0.00 0.00 0.00 58 1010.2
20260509161415 20 221 6.4 19.3 0.00 0.00 0.00 58 1010.3
20260509161409 20 213 8.0 19.3 0.00 0.00 0.00 57 1010.4
20260509161406 20 215 6.4 20.9 0.00 0.00 0.00 57 1010.4
20260509161401 20 207 9.7 24.1 0.00 0.00 0.00 57 1010.4
20260509161354 20 232 11.3 19.3 0.00 0.00 0.00 57 1010.4
20260509161351 20 240 8.0 19.3 0.00 0.00 0.00 57 1010.5
20260509161344 20 259 8.0 19.3 0.00 0.00 0.00 56 1010.5
20260509161342 20 217 9.7 32.2 0.00 0.00 0.00 56 1010.7
20260509161337 20 225 11.3 30.6 0.00 0.00 0.00 56 1010.8
20260509161333 20 217 11.3 24.1 0.00 0.00 0.00 55 1010.9
20260509161325 20 232 9.7 24.1 0.00 0.00 0.00 55 1010.8
20260509161322 20 208 8.0 16.1 0.00 0.00 0.00 55 1010.9
20260509161320 20 200 6.4 22.5 0.00 0.00 0.00 55 1011.0
20260509161316 20 191 11.3 22.5 0.00 0.00 0.00 55 1011.0
20260509161310 20 203 11.3 25.7 0.00 0.00 0.00 54 1011.1
20260509161304 20 170 8.0 20.9 0.00 0.00 0.00 54 1011.1
20260509161257 20 214 8.0 17.7 0.00 0.00 0.00 54 1011.0
20260509161254 20 213 9.7 22.5 0.00 0.00 0.00 53 1010.9
20260509161251 20 173 11.3 22.5 0.00 0.00 0.00 53 1011.0
20260509161248 20 213 11.3 20.9 0.00 0.00 0.00 53 1011.0
20260509161244 20 178 11.3 19.3 0.00 0.00 0.00 53 1010.9
20260509161240 20 180 9.7 19.3 0.00 0.00 0.00 52 1010.9
20260509161236 20 208 9.7 19.3 0.00 0.00 0.00 52 1011.0
20260509161234 20 188 6.4 19.3 0.00 0.00 0.00 52 1010.8
20260509161226 20 199 8.0 17.7 0.00 0.00 0.00 51 1010.8
20260509161223 20 198 8.0 14.5 0.00 0.00 0.00 50 1010.8
20260509161219 20 186 8.0 16.1 0.00 0.00 0.00 49 1010.7
20260509161216 20 201 8.0 17.7 0.00 0.00 0.00 49 1010.8
20260509161207 20 198 8.0 17.7 0.00 0.00 0.00 48 1010.8
20260509161202 20 193 6.4 20.9 0.00 0.00 0.00 47 1010.8
20260509161159 20 263 6.4 20.9 0.00 0.00 0.00 46 1010.7
20260509161157 20 220 11.3 17.7 0.00 0.00 0.00 46 1010.8
20260509161152 20 189 9.7 17.7 0.00 0.00 0.00 45 1010.8
20260509161148 20 193 6.4 12.9 0.00 0.00 0.00 44 1010.8
20260509161143 20 161 8.0 11.3 0.00 0.00 0.00 44 1010.7
20260509161139 20 150 4.8 11.3 0.00 0.00 0.00 44 1010.9
20260509161136 20 204 4.8 14.5 0.00 0.00 0.00 43 1010.8
20260509161129 21 208 8.0 16.1 0.00 0.00 0.00 42 1010.9
20260509161126 21 200 6.4 17.7 0.00 0.00 0.00 42 1011.0
20260509161123 21 188 6.4 17.7 0.00 0.00 0.00 41 1011.0
20260509161116 21 195 11.3 20.9 0.00 0.00 0.00 41 1010.9
20260509161113 21 216 8.0 14.5 0.00 0.00 0.00 40 1010.9
20260509161108 21 184 8.0 20.9 0.00 0.00 0.00 39 1010.7
20260509161059 21 179 4.8 16.1 0.00 0.00 0.00 39 1010.5
20260509161056 21 210 9.7 20.9 0.00 0.00 0.00 39 1010.6
20260509161052 21 184 11.3 20.9 0.00 0.00 0.00 38 1010.6
20260509161049 21 212 6.4 16.1 0.00 0.00 0.00 38 1010.6
20260509161042 21 206 9.7 17.7 0.00 0.00 0.00 38 1010.5
20260509161039 21 213 6.4 14.5 0.00 0.00 0.00 38 1010.5
20260509161033 22 190 8.0 20.9 0.00 0.00 0.00 37 1010.4
20260509161029 22 222 9.7 20.9 0.00 0.00 0.00 37 1010.3
20260509161023 22 200 8.0 19.3 0.00 0.00 0.00 36 1010.3
20260509161019 22 209 8.0 14.5 0.00 0.00 0.00 36 1010.1
20260509161014 22 218 6.4 16.1 0.00 0.00 0.00 36 1010.0
20260509161009 22 200 8.0 17.7 0.00 0.00 0.00 35 1010.0
20260509160959 22 175 11.3 17.7 0.00 0.00 0.00 35 1010.0
20260509160955 23 210 8.0 19.3 0.00 0.00 0.00 35 1009.9
20260509160952 23 229 9.7 19.3 0.00 0.00 0.00 34 1009.9
20260509160949 23 217 11.3 17.7 0.00 0.00 0.00 35 1009.9
20260509160944 23 223 9.7 17.7 0.00 0.00 0.00 34 1009.9
20260509160941 23 223 8.0 29.0 0.00 0.00 0.00 34 1009.9
20260509160936 23 223 11.3 29.0 0.00 0.00 0.00 35 1009.7
20260509160929 23 200 11.3 24.1 0.00 0.00 0.00 34 1009.7
20260509160926 23 243 8.0 24.1 0.00 0.00 0.00 35 1009.6
20260509160923 23 211 8.0 20.9 0.00 0.00 0.00 35 1009.6
20260509160921 24 209 11.3 22.5 0.00 0.00 0.00 34 1009.7
20260509160915 24 194 9.7 27.4 0.00 0.00 0.00 35 1009.7
20260509160910 24 200 9.7 27.4 0.00 0.00 0.00 35 1009.6
20260509160906 24 221 16.1 27.4 0.00 0.00 0.00 35 1009.6
20260509160903 24 213 11.3 20.9 0.00 0.00 0.00 35 1009.6
20260509160858 24 196 12.9 20.9 0.00 0.00 0.00 35 1009.7
20260509160855 24 196 11.3 24.1 0.00 0.00 0.00 35 1009.8
20260509160852 24 177 11.3 24.1 0.00 0.00 0.00 35 1009.8
20260509160846 25 200 11.3 22.5 0.00 0.00 0.00 35 1009.8
20260509160842 25 208 14.5 27.4 0.00 0.00 0.00 33 1010.0
20260509160838 25 190 12.9 27.4 0.00 0.00 0.00 33 1009.9
20260509160834 25 213 12.9 27.4 0.00 0.00 0.00 32 1009.7
20260509160826 26 211 9.7 32.2 0.00 0.00 0.00 31 1009.6
20260509160823 26 210 14.5 32.2 0.00 0.00 0.00 31 1009.6
20260509160819 26 264 17.7 27.4 0.00 0.00 0.00 30 1009.3
20260509160815 26 218 9.7 38.6 0.00 0.00 0.00 32 1009.4
20260509160811 26 217 11.3 38.6 0.00 0.00 0.00 31 1009.4
20260509160806 26 208 9.7 37.0 0.00 0.00 0.00 31 1009.4
20260509160802 26 200 19.3 35.4 0.00 0.00 0.00 31 1009.4
20260509160759 26 200 17.7 35.4 0.00 0.00 0.00 31 1009.3
20260509160756 26 207 16.1 35.4 0.00 0.00 0.00 30 1009.3
20260509160753 26 191 17.7 32.2 0.00 0.00 0.00 30 1009.3
20260509160748 26 194 14.5 33.8 0.00 0.00 0.00 30 1009.4
20260509160743 26 208 19.3 46.7 0.00 0.00 0.00 31 1009.3
20260509160736 26 223 16.1 30.6 0.00 0.00 0.00 33 1009.4
20260509160733 26 221 17.7 37.0 0.00 0.00 0.00 32 1009.4
20260509160729 26 208 16.1 27.4 0.00 0.00 0.00 31 1009.1
20260509160726 26 233 16.1 40.2 0.00 0.00 0.00 31 1009.4
20260509160722 26 194 20.9 40.2 0.00 0.00 0.00 30 1009.3
20260509160719 26 182 19.3 37.0 0.00 0.00 0.00 32 1009.4
20260509160714 26 212 11.3 32.2 0.00 0.00 0.00 34 1009.3
20260509160708 26 209 11.3 37.0 0.00 0.00 0.00 35 1009.8
20260509160700 26 198 14.5 30.6 0.00 0.00 0.00 34 1009.6
20260509160654 26 240 14.5 35.4 0.00 0.00 0.00 32 1009.7
20260509160649 26 209 14.5 27.4 0.00 0.00 0.00 35 1009.9
20260509160646 26 202 11.3 30.6 0.00 0.00 0.00 35 1009.8
20260509160643 26 196 16.1 30.6 0.00 0.00 0.00 35 1009.9
20260509160639 26 202 17.7 29.0 0.00 0.00 0.00 33 1010.1
20260509160634 26 193 17.7 29.0 0.00 0.00 0.00 33 1010.2
20260509160626 26 210 14.5 25.7 0.00 0.00 0.00 35 1010.2
20260509160623 26 237 17.7 33.8 0.00 0.00 0.00 33 1010.6
20260509160619 26 244 11.3 27.4 0.00 0.00 0.00 33 1010.6
20260509160614 26 219 19.3 32.2 0.00 0.00 0.00 33 1010.7
20260509160608 26 200 12.9 33.8 0.00 0.00 0.00 36 1010.5
20260509160604 26 222 20.9 33.8 0.00 0.00 0.00 35 1010.7
20260509160558 26 184 19.3 33.8 0.00 0.00 0.00 35 1010.7
20260509160553 26 200 19.3 30.6 0.00 0.00 0.00 34 1010.9
20260509160551 26 242 9.7 32.2 0.00 0.00 0.00 36 1011.0
20260509160546 26 208 12.9 30.6 0.00 0.00 0.00 37 1011.1
20260509160539 26 202 16.1 30.6 0.00 0.00 0.00 36 1011.1
20260509160535 26 211 12.9 32.2 0.00 0.00 0.00 36 1011.2
20260509160526 26 209 11.3 24.1 0.00 0.00 0.00 37 1011.2
20260509160523 25 257 6.4 29.0 0.00 0.00 0.00 39 1011.3
20260509160519 25 211 8.0 33.8 0.00 0.00 0.00 38 1011.2
20260509160516 25 157 16.1 33.8 0.00 0.00 0.00 38 1011.3
20260509160513 25 198 20.9 30.6 0.00 0.00 0.00 38 1011.5
20260509160509 25 254 11.3 33.8 0.00 0.00 0.00 38 1011.5
20260509160507 25 186 16.1 33.8 0.00 0.00 0.00 37 1011.4
20260509160503 25 241 4.8 17.7 0.00 0.00 0.00 43 1011.6
20260509160500 25 236 6.4 20.9 0.00 0.00 0.00 45 1011.7
20260509160454 25 216 8.0 27.4 0.00 0.00 0.00 41 1011.8
20260509160446 25 240 12.9 32.2 0.00 0.00 0.00 1011.8
20260509160437 25 232 4.8 20.9 0.00 0.00 0.00 43 1011.9
20260509160430 25 219 12.9 20.9 0.00 0.00 0.00 41 1011.8
20260509160427 25 213 12.9 27.4 0.00 0.00 0.00 38 1012.0
20260509160424 25 210 12.9 27.4 0.00 0.00 0.00 44 1012.0
20260509160419 25 225 8.0 25.7 0.00 0.00 0.00 45 1012.0
20260509160416 24 186 9.7 22.5 0.00 0.00 0.00 44 1012.0
20260509160411 24 317 8.0 20.9 0.00 0.00 0.00 43 1012.0
20260509160404 24 264 8.0 22.5 0.00 0.00 0.00 42 1012.1
20260509160356 24 284 8.0 22.5 0.00 0.00 0.00 44 1012.1
20260509160350 24 196 11.3 17.7 0.00 0.00 0.00 45 1012.0
20260509160343 23 195 4.8 19.3 0.00 0.00 0.00 45 1012.0
20260509160337 23 240 4.8 25.7 0.00 0.00 0.00 46 1012.0
20260509160334 23 227 8.0 19.3 0.00 0.00 0.00 46 1012.0
20260509160331 23 242 6.4 16.1 0.00 0.00 0.00 48 1012.1
20260509160326 23 285 6.4 16.1 0.00 0.00 0.00 48 1012.1
20260509160323 22 305 4.8 17.7 0.00 0.00 0.00 51 1012.1
20260509160320 22 306 6.4 17.7 0.00 0.00 0.00 51 1012.2
20260509160316 22 241 6.4 19.3 0.00 0.00 0.00 49 1012.2
20260509160312 21 258 6.4 19.3 0.00 0.00 0.00 53 1012.1
20260509160309 21 230 4.8 14.5 0.00 0.00 0.00 55 1012.0
20260509160303 20 252 6.4 17.7 0.00 0.00 0.00 56 1012.2
20260509160257 20 194 6.4 17.7 0.00 0.00 0.00 55 1012.2
20260509160252 19 212 8.0 14.5 0.00 0.00 0.00 57 1012.5
20260509160247 19 178 8.0 12.9 0.00 0.00 0.00 58 1012.5
20260509160241 18 200 6.4 11.3 0.00 0.00 0.00 59 1012.6
20260509160234 18 182 4.8 9.7 0.00 0.00 0.00 61 1012.7
20260509160230 18 179 6.4 11.3 0.00 0.00 0.00 61 1013.0
20260509160228 17 189 6.4 14.5 0.00 0.00 0.00 61 1013.0
20260509160225 17 209 8.0 14.5 0.00 0.00 0.00 62 1012.9
20260509160216 17 225 8.0 14.5 0.00 0.00 0.00 62 1012.9
20260509160211 16 240 4.8 11.3 0.00 0.00 0.00 63 1013.0
20260509160208 16 240 3.2 9.7 0.00 0.00 0.00 67 1013.0
20260509160203 15 208 6.4 9.7 0.00 0.00 0.00 66 1013.0
20260509160159 15 213 4.8 11.3 0.00 0.00 0.00 67 1013.0
20260509160153 15 252 6.4 11.3 0.00 0.00 0.00 67 1013.1
20260509160150 15 206 8.0 12.9 0.00 0.00 0.00 68 1012.9
20260509160147 14 228 4.8 14.5 0.00 0.00 0.00 69 1012.8
20260509160143 14 223 4.8 14.5 0.00 0.00 0.00 70 1012.7
20260509160138 14 205 8.0 11.3 0.00 0.00 0.00 70 1012.7
20260509160133 13 210 6.4 11.3 0.00 0.00 0.00 70 1012.5
20260509160131 13 203 4.8 14.5 0.00 0.00 0.00 70 1012.5
20260509160125 13 191 6.4 14.5 0.00 0.00 0.00 70 1012.5
20260509160123 13 215 4.8 14.5 0.00 0.00 0.00 71 1012.5
20260509160120 13 220 6.4 14.5 0.00 0.00 0.00 71 1012.3
20260509160114 13 210 4.8 9.7 0.00 0.00 0.00 71 1012.2
20260509160110 13 213 3.2 9.7 0.00 0.00 0.00 71 1012.1
20260509160101 13 194 4.8 14.5 0.00 0.00 0.00 71 1011.8
20260509160058 13 186 3.2 9.7 0.00 0.00 0.00 71 1011.7
20260509160055 13 187 3.2 8.0 0.00 0.00 0.00 71 1011.6
20260509160052 13 218 4.8 11.3 0.00 0.00 0.00 70 1011.5
20260509160045 13 211 3.2 9.7 0.00 0.00 0.00 69 1011.5
20260509160035 13 224 8.0 14.5 0.00 0.00 0.00 69 1011.4
20260509160031 13 224 4.8 12.9 0.00 0.00 0.00 70 1011.4
20260509160028 13 235 4.8 9.7 0.00 0.00 0.00 69 1011.4
20260509160008 13 213 4.8 11.3 0.00 0.00 0.00 69 1011.4
20260509160002 13 207 6.4 11.3 0.00 0.00 0.00 69 1011.4
20260509155957 13 229 4.8 16.1 0.00 0.00 0.00 69 1011.3
20260509155950 13 205 4.8 9.7 0.00 0.00 0.00 69 1011.3
20260509155945 13 234 6.4 12.9 0.00 0.00 0.00 69 1011.3
20260509155943 13 229 6.4 11.3 0.00 0.00 0.00 69 1011.2
20260509155934 14 205 4.8 11.3 0.00 0.00 0.00 69 1011.2
20260509155932 14 200 4.8 9.7 0.00 0.00 0.00 69 1011.2
20260509155926 14 224 4.8 11.3 0.00 0.00 0.00 69 1011.3
20260509155923 14 215 4.8 11.3 0.00 0.00 0.00 68 1011.3
20260509155920 14 198 3.2 6.4 0.00 0.00 0.00 67 1011.1
20260509155914 14 211 3.2 8.0 0.00 0.00 0.00 67 1011.2
20260509155911 15 197 4.8 9.7 0.00 0.00 0.00 67 1011.0
20260509155903 15 187 4.8 11.3 0.00 0.00 0.00 67 1011.0
20260509155901 15 187 3.2 11.3 0.00 0.00 0.00 67 1011.0
20260509155856 15 220 4.8 9.7 0.00 0.00 0.00 67 1011.0
20260509155853 15 211 4.8 6.4 0.00 0.00 0.00 67 1011.0
20260509155848 15 217 3.2 8.0 0.00 0.00 0.00 67 1011.0
20260509155843 15 207 4.8 8.0 0.00 0.00 0.00 67 1011.0
20260509155840 15 213 1.6 6.4 0.00 0.00 0.00 66 1010.9
20260509155837 15 200 1.6 6.4 0.00 0.00 0.00 66 1011.0
20260509155833 15 232 1.6 6.4 0.00 0.00 0.00 66 1011.0
20260509155830 15 221 3.2 6.4 0.00 0.00 0.00 66 1011.0
20260509155827 15 202 3.2 8.0 0.00 0.00 0.00 66 1011.0
20260509155824 15 205 3.2 12.9 0.00 0.00 0.00 66 1011.0
20260509155819 15 213 4.8 12.9 0.00 0.00 0.00 66 1011.0
20260509155816 15 205 4.8 9.7 0.00 0.00 0.00 66 1011.0
20260509155812 15 212 6.4 9.7 0.00 0.00 0.00 65 1011.0
20260509155808 15 196 3.2 4.8 0.00 0.00 0.00 65 1011.1
20260509155806 15 144 1.6 3.2 0.00 0.00 0.00 63 1011.1
20260509155758 16 147 1.6 3.2 0.00 0.00 0.00 63 1011.1
20260509155753 16 164 0.0 8.0 0.00 0.00 0.00 63 1011.1
20260509155748 16 190 1.6 6.4 0.00 0.00 0.00 61 1011.2
20260509155744 16 202 3.2 9.7 0.00 0.00 0.00 61 1011.1
20260509155735 16 218 6.4 12.9 0.00 0.00 0.00 60 1011.2
20260509155733 16 188 6.4 12.9 0.00 0.00 0.00 60 1011.2
20260509155729 16 209 4.8 11.3 0.00 0.00 0.00 60 1011.2
20260509155723 16 197 6.4 12.9 0.00 0.00 0.00 60 1011.2
20260509155718 16 218 6.4 12.9 0.00 0.00 0.00 60 1011.2
20260509155715 16 188 4.8 12.9 0.00 0.00 0.00 59 1011.2
20260509155709 16 224 8.0 12.9 0.00 0.00 0.00 59 1011.3
20260509155706 17 211 4.8 14.5 0.00 0.00 0.00 58 1011.2
20260509155702 17 214 4.8 14.5 0.00 0.00 0.00 58 1011.2
20260509155656 17 215 6.4 9.7 0.00 0.00 0.00 58 1011.3
20260509155652 17 212 4.8 14.5 0.00 0.00 0.00 57 1011.2
20260509155648 17 200 4.8 14.5 0.00 0.00 0.00 57 1011.1
20260509155641 17 185 6.4 12.9 0.00 0.00 0.00 57 1011.1
20260509155635 17 213 6.4 12.9 0.00 0.00 0.00 58 1011.1
20260509155630 16 216 8.0 12.9 0.00 0.00 0.00 57 1011.0
20260509155626 16 207 4.8 14.5 0.00 0.00 0.00 57 1011.1
20260509155620 16 198 6.4 14.5 0.00 0.00 0.00 57 1011.1
20260509155618 16 230 8.0 12.9 0.00 0.00 0.00 57 1011.0
20260509155614 16 210 6.4 12.9 0.00 0.00 0.00 57 1011.0
20260509155611 16 196 4.8 12.9 0.00 0.00 0.00 57 1010.9
20260509155607 16 195 6.4 9.7 0.00 0.00 0.00 57 1010.8
20260509155604 16 215 4.8 9.7 0.00 0.00 0.00 56 1010.9
20260509155559 16 219 6.4 11.3 0.00 0.00 0.00 56 1011.0
20260509155554 16 192 6.4 11.3 0.00 0.00 0.00 56 1011.0
20260509155551 16 187 4.8 16.1 0.00 0.00 0.00 56 1010.8
20260509155547 16 190 8.0 16.1 0.00 0.00 0.00 56 1010.8
20260509155543 16 215 4.8 14.5 0.00 0.00 0.00 56 1010.8
20260509155540 16 207 6.4 14.5 0.00 0.00 0.00 56 1010.9
20260509155533 16 171 3.2 8.0 0.00 0.00 0.00 56 1011.0
20260509155526 16 217 1.6 9.7 0.00 0.00 0.00 57 1011.0